Weather History for West Palm Beach, FL

Change the Weather History Date:

Saturday, April 5, 2014

  Actual Average Record
Temperature  
Mean Temperature 76 °F 72 °F  
Max Temperature 85 °F 80 °F 95 °F (1949)
Min Temperature 66 °F 64 °F 43 °F (1987)
Degree Days  
Heating Degree Days 0 0  
Month to date heating degree days 0 0  
Since 1 July heating degree days 122 229  
Cooling Degree Days 11 8  
Month to date cooling degree days 40 37  
Year to date cooling degree days 588 465  
Growing Degree Days 25 (Base 50)    
Moisture  
Dew Point 64 °F    
Average Humidity 67    
Maximum Humidity 87    
Minimum Humidity 47    
Precipitation  
Precipitation 0.00 in 0.13 in 3.49 in (1930)
Month to date precipitation 0.00 0.71  
Year to date precipitation 13.88 11.25  
Snow  
Snow 0.00 in - - ()
Month to date snowfall 0.0  
Since 1 July snowfall 0.0  
Snow Depth 0.00 in    
Sea Level Pressure  
Sea Level Pressure 30.02 in    
Wind  
Wind Speed 8 mph (South)    
Max Wind Speed 17 mph    
Max Gust Speed 24 mph    
Visibility 10 miles    
Events      
T = Trace of Precipitation, MM = Missing Value Source: NWS Daily Summary

Daily Weather History Graph

Daily Weather History Graph

Search for Another Location

Airport:

Trip Planner

Search our weather history database for the weather conditions in past years. The results will help you decide how hot, cold, wet, or windy it might be!

Date:

Astronomy

Apr. 05, 2014 Rise Set
Actual Time 7:06 AM EDT 7:39 PM EDT
Civil Twilight 6:43 AM EDT 8:02 PM EDT
Nautical Twilight 6:16 AM EDT 8:30 PM EDT
Astronomical Twilight 5:48 AM EDT 8:58 PM EDT
Moon 11:32 AM EDT (4/5) 12:29 AM EDT (4/5)
Length of Visible Light 13h 19m
Length of Day
12h 32m
Waxing Crescent, 34% of the Moon is Illuminated
Apr 5
Waxing Crescent
Apr 7
First Quarter
Apr 15
Full
Apr 22
Last Quarter
Apr 29
New

Hourly Weather History & Observations

Time (EDT) Temp. Heat Index Dew Point Humidity Pressure Visibility Wind Dir Wind Speed Gust Speed Precip Events Conditions
12:53 AM 73.0 °F - 63.0 °F 71% 30.03 in 10.0 mi South 5.8 mph - N/A   Partly Cloudy
1:53 AM 72.0 °F - 64.0 °F 76% 30.02 in 10.0 mi South 4.6 mph - N/A   Partly Cloudy
2:53 AM 71.1 °F - 64.0 °F 78% 30.00 in 10.0 mi SW 3.5 mph - N/A   Scattered Clouds
3:53 AM 71.1 °F - 64.0 °F 78% 29.99 in 10.0 mi SSW 3.5 mph - N/A   Scattered Clouds
4:53 AM 69.1 °F - 63.0 °F 81% 29.98 in 10.0 mi Calm Calm - N/A   Partly Cloudy
5:53 AM 69.1 °F - 64.0 °F 84% 29.98 in 10.0 mi SW 3.5 mph - N/A   Partly Cloudy
6:53 AM 66.0 °F - 63.0 °F 90% 30.01 in 10.0 mi West 4.6 mph - N/A   Partly Cloudy
7:53 AM 68.0 °F - 64.0 °F 87% 30.03 in 10.0 mi West 3.5 mph - N/A   Scattered Clouds
8:53 AM 73.9 °F - 66.0 °F 76% 30.04 in 10.0 mi SW 5.8 mph - N/A   Scattered Clouds
9:53 AM 78.1 °F - 64.9 °F 64% 30.05 in 10.0 mi SSW 8.1 mph - N/A   Scattered Clouds
10:53 AM 79.0 °F - 63.0 °F 58% 30.06 in 10.0 mi SW 6.9 mph - N/A   Mostly Cloudy
11:53 AM 84.0 °F 85.4 °F 64.0 °F 51% 30.06 in 10.0 mi SW 5.8 mph - N/A   Mostly Cloudy
12:53 PM 84.0 °F 85.4 °F 64.0 °F 51% 30.04 in 10.0 mi SE 10.4 mph - N/A   Scattered Clouds
1:53 PM 82.9 °F 84.0 °F 63.0 °F 51% 30.03 in 10.0 mi SE 12.7 mph - N/A   Scattered Clouds
2:53 PM 82.9 °F 83.3 °F 61.0 °F 47% 30.01 in 10.0 mi SE 13.8 mph - N/A   Mostly Cloudy
3:53 PM 82.9 °F 83.2 °F 60.1 °F 46% 30.01 in 10.0 mi SE 13.8 mph - N/A   Mostly Cloudy
4:53 PM 82.0 °F 83.1 °F 63.0 °F 52% 29.99 in 10.0 mi SE 15.0 mph - N/A   Mostly Cloudy
5:53 PM 81.0 °F 82.2 °F 63.0 °F 54% 29.99 in 10.0 mi SE 17.3 mph - N/A   Mostly Cloudy
6:53 PM 79.0 °F - 62.1 °F 56% 29.99 in 10.0 mi SSE 12.7 mph - N/A   Mostly Cloudy
7:53 PM 77.0 °F - 63.0 °F 62% 30.00 in 10.0 mi SSE 11.5 mph - N/A   Scattered Clouds
8:53 PM 75.9 °F - 64.9 °F 69% 30.01 in 10.0 mi SE 9.2 mph - N/A   Scattered Clouds
9:53 PM 75.9 °F - 66.0 °F 71% 30.04 in 10.0 mi SE 8.1 mph - N/A   Partly Cloudy
10:53 PM 75.0 °F - 64.9 °F 71% 30.05 in 10.0 mi SE 4.6 mph - N/A   Mostly Cloudy
11:53 PM 75.0 °F - 64.9 °F 71% 30.04 in 10.0 mi SSE 5.8 mph - N/A   Scattered Clouds